Langdon, ND

8:25 PM CST on December 10, 2017 (GMT -0600)
Langdon

Weather History for KD55 - May, 2013

Change the Weather History Date:

Wednesday, May 8, 2013

  Actual Average (KDVL) Record (KDVL)
Temperature  
Mean Temperature 43 °F -  
Max Temperature 51 °F 60 °F 85 °F (1992)
Min Temperature 33 °F 39 °F 25 °F (1955)
Degree Days  
Heating Degree Days 22    
Moisture  
Dew Point 35 °F    
Average Humidity 71    
Maximum Humidity 100    
Minimum Humidity 46    
Precipitation  
Precipitation 0.00 in - - ()
Sea Level Pressure  
Sea Level Pressure 30.09 in    
Wind  
Wind Speed 14 mph (NNE)    
Max Wind Speed 25 mph    
Max Gust Speed 31 mph    
Visibility 10 miles    
Events      
Averages and records for this station are not official NWS values.
T = Trace of Precipitation, MM = Missing Value Source: NWS Daily Summary

Daily Weather History Graph

Daily Weather History Graph

Search for Another Location

Airport or City:

Trip Planner

Search our weather history database for the weather conditions in past years. The results will help you decide how hot, cold, wet, or windy it might be!

Date:

Astronomy

May. 08, 2013 Rise Set
Actual Time 6:01 AM CDT 8:59 PM CDT
Civil Twilight 5:25 AM CDT 9:36 PM CDT
Nautical Twilight 4:37 AM CDT 10:23 PM CDT
Astronomical Twilight 3:40 AM CDT 11:22 PM CDT
Moon 5:17 AM CDT (5/8) 7:54 PM CDT (5/8)
Length of Visible Light 16h 11m
Length of Day
14h 57m
Waning Crescent, 2% of the Moon is Illuminated
May 8
Waning Crescent
May 9
New
May 17
First Quarter
May 24
Full
May 31
Last Quarter

Hourly Weather History & Observations

Time (CDT) Temp. Windchill Dew Point Humidity Pressure Visibility Wind Dir Wind Speed Gust Speed Precip Events Conditions
12:15 AM 46.4 °F 44.3 °F 46.4 °F 100% 29.90 in 10.0 mi SSE 4.6 mph - N/A   Clear
12:35 AM 46.4 °F 45.2 °F 44.6 °F 93% 29.90 in 10.0 mi SSE 3.5 mph - N/A   Clear
12:55 AM 48.2 °F - 44.6 °F 87% 29.91 in 10.0 mi Calm Calm - N/A   Clear
1:15 AM 46.4 °F - 46.4 °F 100% 29.91 in 10.0 mi Calm Calm - N/A   Clear
1:35 AM 48.2 °F - 44.6 °F 87% 29.91 in 10.0 mi Calm Calm - N/A   Clear
1:55 AM 48.2 °F - 44.6 °F 87% 29.94 in 10.0 mi North 15.0 mph 18.4 mph N/A   Clear
2:15 AM 46.4 °F 40.7 °F 44.6 °F 93% 29.94 in 10.0 mi North 12.7 mph - N/A   Clear
2:35 AM 44.6 °F 38.8 °F 42.8 °F 93% 29.95 in 10.0 mi North 11.5 mph - N/A   Clear
2:55 AM 44.6 °F 38.4 °F 41.0 °F 87% 29.96 in 10.0 mi NNE 12.7 mph - N/A   Clear
3:15 AM 42.8 °F 35.8 °F 41.0 °F 93% 29.96 in 10.0 mi NNE 13.8 mph - N/A   Clear
3:35 AM 44.6 °F 38.1 °F 39.2 °F 81% 29.96 in 10.0 mi NNE 13.8 mph - N/A   Clear
3:55 AM 44.6 °F 37.8 °F 39.2 °F 81% 29.97 in 10.0 mi NNE 15.0 mph - N/A   Clear
4:15 AM 42.8 °F 34.8 °F 39.2 °F 87% 29.97 in 10.0 mi NNE 17.3 mph - N/A   Clear
4:35 AM 41.0 °F 33.1 °F 37.4 °F 87% 29.98 in 10.0 mi NNE 15.0 mph - N/A   Clear
4:55 AM 41.0 °F 32.5 °F 35.6 °F 81% 29.98 in 10.0 mi NNE 17.3 mph - N/A   Clear
5:15 AM 41.0 °F 32.8 °F 35.6 °F 81% 29.99 in 10.0 mi NNE 16.1 mph - N/A   Clear
5:35 AM 39.2 °F 30.8 °F 35.6 °F 87% 30.00 in 10.0 mi NNE 15.0 mph 21.9 mph N/A   Clear
5:55 AM 39.2 °F 30.2 °F 35.6 °F 87% 30.01 in 10.0 mi NNE 17.3 mph 24.2 mph N/A   Clear
6:15 AM 39.2 °F 30.2 °F 35.6 °F 87% 30.02 in 10.0 mi NNE 17.3 mph - N/A   Clear
6:35 AM 39.2 °F 30.2 °F 33.8 °F 81% 30.03 in 10.0 mi NNE 17.3 mph 24.2 mph N/A   Clear
6:55 AM 39.2 °F 30.2 °F 35.6 °F 87% 30.04 in 10.0 mi North 17.3 mph 23.0 mph N/A   Clear
7:15 AM 39.2 °F 30.2 °F 35.6 °F 87% 30.05 in 10.0 mi NNE 17.3 mph 25.3 mph N/A   Clear
7:35 AM 41.0 °F 32.2 °F 35.6 °F 81% 30.06 in 10.0 mi NNE 18.4 mph 26.5 mph N/A   Clear
7:55 AM 39.2 °F 29.8 °F 35.6 °F 87% 30.06 in 10.0 mi NNE 18.4 mph 25.3 mph N/A   Clear
8:15 AM 41.0 °F 31.4 °F 35.6 °F 81% 30.07 in 10.0 mi NNE 21.9 mph 26.5 mph N/A   Clear
8:35 AM 41.0 °F 30.9 °F 35.6 °F 81% 30.08 in 10.0 mi NNE 24.2 mph 29.9 mph N/A   Clear
8:55 AM 41.0 °F 31.1 °F 35.6 °F 81% 30.08 in 10.0 mi NNE 23.0 mph 29.9 mph N/A   Clear
9:15 AM 41.0 °F 30.9 °F 35.6 °F 81% 30.09 in 10.0 mi NNE 24.2 mph 29.9 mph N/A   Clear
9:35 AM 41.0 °F 30.9 °F 35.6 °F 81% 30.09 in 10.0 mi NNE 24.2 mph 28.8 mph N/A   Clear
9:55 AM 42.8 °F 33.5 °F 35.6 °F 76% 30.10 in 10.0 mi NNE 23.0 mph 28.8 mph N/A   Clear
10:15 AM 44.6 °F 36.6 °F 37.4 °F 76% 30.10 in 10.0 mi NE 19.6 mph 27.6 mph N/A   Clear
10:35 AM 46.4 °F 38.5 °F 37.4 °F 71% 30.10 in 10.0 mi NNE 21.9 mph 27.6 mph N/A   Mostly Cloudy
10:55 AM 44.6 °F 36.6 °F 37.4 °F 76% 30.11 in 10.0 mi NNE 19.6 mph 26.5 mph N/A   Mostly Cloudy
11:15 AM 42.8 °F 33.5 °F 35.6 °F 76% 30.12 in 10.0 mi NNE 23.0 mph - N/A   Scattered Clouds
11:35 AM 42.8 °F 34.3 °F 35.6 °F 76% 30.13 in 10.0 mi NNE 19.6 mph - N/A   Partly Cloudy
11:55 AM 44.6 °F 36.1 °F 37.4 °F 76% 30.13 in 10.0 mi NNE 21.9 mph 26.5 mph N/A   Mostly Cloudy
12:15 PM 46.4 °F 38.5 °F 37.4 °F 71% 30.14 in 10.0 mi NNE 21.9 mph 26.5 mph N/A   Mostly Cloudy
12:35 PM 46.4 °F 38.3 °F 37.4 °F 71% 30.14 in 10.0 mi NNE 23.0 mph 28.8 mph N/A   Overcast
12:55 PM 50.0 °F - 37.4 °F 62% 30.14 in 10.0 mi NE 19.6 mph 28.8 mph N/A   Overcast
1:15 PM 50.0 °F - 37.4 °F 62% 30.13 in 10.0 mi NNE 21.9 mph 29.9 mph N/A   Mostly Cloudy
1:35 PM 50.0 °F - 35.6 °F 58% 30.13 in 10.0 mi NNE 20.7 mph 31.1 mph N/A   Partly Cloudy
1:55 PM 50.0 °F - 37.4 °F 62% 30.14 in 10.0 mi NNE 21.9 mph 28.8 mph N/A   Clear
2:15 PM 51.8 °F - 37.4 °F 58% 30.14 in 10.0 mi NNE 24.2 mph - N/A   Clear
2:35 PM 51.8 °F - 35.6 °F 54% 30.15 in 10.0 mi NNE 23.0 mph 31.1 mph N/A   Clear
2:55 PM 51.8 °F - 35.6 °F 54% 30.15 in 10.0 mi NNE 20.7 mph 31.1 mph N/A   Clear
3:15 PM 51.8 °F - 35.6 °F 54% 30.14 in 10.0 mi NNE 20.7 mph 27.6 mph N/A   Clear
3:35 PM 51.8 °F - 32.0 °F 47% 30.15 in 10.0 mi NNE 25.3 mph - N/A   Clear
3:55 PM 51.8 °F - 32.0 °F 47% 30.15 in 10.0 mi NNE 20.7 mph 27.6 mph N/A   Clear
4:15 PM 51.8 °F - 33.8 °F 50% 30.15 in 10.0 mi North 20.7 mph 28.8 mph N/A   Clear
4:35 PM 51.8 °F - 32.0 °F 47% 30.15 in 10.0 mi NNE 20.7 mph 27.6 mph N/A   Clear
4:55 PM 50.0 °F - 32.0 °F 50% 30.15 in 10.0 mi NNE 23.0 mph 31.1 mph N/A   Clear
5:15 PM 50.0 °F - 32.0 °F 50% 30.15 in 10.0 mi North 24.2 mph 28.8 mph N/A   Clear
5:35 PM 50.0 °F - 32.0 °F 50% 30.15 in 10.0 mi NNE 20.7 mph 27.6 mph N/A   Clear
5:55 PM 50.0 °F - 30.2 °F 47% 30.15 in 10.0 mi NNE 20.7 mph 27.6 mph N/A   Clear
6:15 PM 50.0 °F - 30.2 °F 47% 30.16 in 10.0 mi NNE 21.9 mph 25.3 mph N/A   Clear
6:35 PM 48.2 °F - 30.2 °F 50% 30.16 in 10.0 mi NNE 21.9 mph 28.8 mph N/A   Clear
6:55 PM 48.2 °F - 28.4 °F 46% 30.16 in 10.0 mi North 21.9 mph 29.9 mph N/A   Clear
7:15 PM 48.2 °F - 28.4 °F 46% 30.17 in 10.0 mi NNE 19.6 mph 25.3 mph N/A   Clear
7:35 PM 46.4 °F 38.7 °F 28.4 °F 50% 30.17 in 10.0 mi NNE 20.7 mph 25.3 mph N/A   Clear
7:55 PM 46.4 °F 39.0 °F 28.4 °F 50% 30.18 in 10.0 mi NNE 19.6 mph 25.3 mph N/A   Clear
8:15 PM 44.6 °F 37.4 °F 28.4 °F 53% 30.18 in 10.0 mi NNE 16.1 mph 24.2 mph N/A   Clear
8:35 PM 44.6 °F 37.2 °F 28.4 °F 53% 30.19 in 10.0 mi North 17.3 mph 21.9 mph N/A   Clear
8:55 PM 41.0 °F 32.8 °F 28.4 °F 61% 30.19 in 10.0 mi NNE 16.1 mph 20.7 mph N/A   Clear
9:15 PM 41.0 °F 33.1 °F 28.4 °F 61% 30.20 in 10.0 mi North 15.0 mph - N/A   Clear
9:35 PM 39.2 °F 30.8 °F 28.4 °F 65% 30.20 in 10.0 mi North 15.0 mph 19.6 mph N/A   Clear
9:55 PM 39.2 °F 30.8 °F 26.6 °F 61% 30.21 in 10.0 mi North 15.0 mph 20.7 mph N/A   Clear
10:15 PM 37.4 °F 28.5 °F 26.6 °F 65% 30.21 in 10.0 mi NNE 15.0 mph - N/A   Clear
10:35 PM 37.4 °F 29.3 °F 26.6 °F 65% 30.22 in 10.0 mi NNE 12.7 mph - N/A   Clear
10:55 PM 35.6 °F 27.1 °F 26.6 °F 70% 30.22 in 10.0 mi NNE 12.7 mph - N/A   Clear
11:15 PM 35.6 °F 27.1 °F 26.6 °F 70% 30.22 in 10.0 mi NNE 12.7 mph - N/A   Clear
11:35 PM 33.8 °F 25.3 °F 26.6 °F 75% 30.23 in 10.0 mi NNE 11.5 mph - N/A   Clear